Location: Mannheim
(49.4880°N, 8.4650°E)
Time: 16:37:03
(UTC+02:00)

ISS - Visible Passes

Search period start: 28 May 2017 00:00
Search period end: 07 June 2017 00:00
Orbit: 402 x 408 km, 51.6° (Epoch: 28 May)

Date Brightness Start Highest point End Pass type
(mag) Time Alt. Az. Time Alt. Az. Time Alt. Az.
28 May -3.2 00:06:09 10° W 00:09:25 57° N 00:12:41 10° ENE visible
28 May -3.9 01:42:47 10° WNW 01:46:05 86° NNE 01:47:25 33° ESE visible
28 May -1.5 03:19:34 10° W 03:19:57 12° W 03:19:57 12° W visible
28 May -3.3 23:14:02 10° W 23:17:19 62° N 23:20:36 10° ENE visible
29 May -3.6 00:50:44 10° WNW 00:54:01 68° NNE 00:56:01 22° E visible
29 May -2.0 02:27:20 10° W 02:28:37 20° W 02:28:37 20° W visible
29 May -3.6 22:21:54 10° W 22:25:13 74° NNW 22:28:32 10° ENE visible
29 May -3.3 23:58:38 10° WNW 00:01:55 59° N 00:05:09 10° E visible
30 May -3.3 01:35:12 10° WNW 01:37:46 45° WSW 01:37:46 45° WSW visible
30 May -3.1 23:06:30 10° W 23:09:47 56° N 23:13:02 10° E visible
31 May -4.0 00:43:06 10° WNW 00:46:25 85° SSW 00:47:05 54° ESE visible
31 May -3.2 22:14:21 10° W 22:17:38 59° N 22:20:54 10° ENE visible
31 May -3.7 23:51:01 10° WNW 23:54:19 74° NNE 23:56:29 20° E visible
01 Jun -2.0 01:27:40 10° W 01:29:07 21° W 01:29:07 21° W visible
01 Jun -3.3 22:58:54 10° WNW 23:02:11 62° N 23:05:28 10° E visible
02 Jun -3.6 00:35:29 10° WNW 00:38:36 50° SW 00:38:36 50° SW visible
02 Jun -3.1 22:06:45 10° WNW 22:10:01 57° N 22:13:17 10° E visible
02 Jun -3.9 23:43:19 10° WNW 23:46:38 75° SSW 23:48:06 30° ESE visible
03 Jun -1.2 01:20:25 10° W 01:20:44 11° W 01:20:44 11° W visible
03 Jun -3.8 22:51:12 10° WNW 22:54:31 81° NNE 22:57:38 11° ESE visible
04 Jun -2.5 00:27:55 10° W 00:30:17 26° SW 00:30:17 26° SW visible
04 Jun -3.3 23:35:38 10° WNW 23:38:47 43° SSW 23:39:51 31° SSE visible
05 Jun -3.8 22:43:26 10° WNW 22:46:43 65° SSW 22:49:26 14° ESE visible
06 Jun -1.6 00:20:47 10° WSW 00:22:05 14° SW 00:22:05 14° SW visible
06 Jun -2.3 23:28:05 10° W 23:30:47 23° SW 23:31:42 21° S visible
